Year,Month,Day,Hour,Minute,Value (Times are PST for temperature in C)
2017,02,04,02,17,0.40
2017,02,04,02,18,0.40
2017,02,04,02,19,0.40
2017,02,04,02,20,0.40
2017,02,04,02,21,0.50
2017,02,04,02,22,0.50
2017,02,04,02,23,0.50
2017,02,04,02,24,0.50
2017,02,04,02,25,0.50
2017,02,04,02,26,0.50
2017,02,04,02,27,0.50
2017,02,04,02,28,0.50
2017,02,04,02,29,0.50
2017,02,04,02,30,0.50
2017,02,04,02,31,0.50
2017,02,04,02,32,0.50
2017,02,04,02,33,0.50
2017,02,04,02,34,0.50
2017,02,04,02,35,0.50
2017,02,04,02,36,0.50
2017,02,04,02,37,0.50
2017,02,04,02,38,0.50
2017,02,04,02,39,0.50
2017,02,04,02,40,0.50
2017,02,04,02,41,0.50
2017,02,04,02,42,0.40
2017,02,04,02,43,0.40
2017,02,04,02,44,0.40
2017,02,04,02,45,0.40
2017,02,04,02,46,0.40
2017,02,04,02,47,0.40
2017,02,04,02,48,0.40
2017,02,04,02,49,0.40
2017,02,04,02,50,0.40
2017,02,04,02,51,0.40
2017,02,04,02,52,0.40
2017,02,04,02,53,0.40
2017,02,04,02,54,0.40
2017,02,04,02,55,0.40
2017,02,04,02,56,0.40
2017,02,04,02,57,0.40
2017,02,04,02,58,0.40
2017,02,04,02,59,0.40
2017,02,04,03,00,0.40
2017,02,04,03,01,0.40
2017,02,04,03,02,0.40
2017,02,04,03,03,0.40
2017,02,04,03,04,0.40
2017,02,04,03,05,0.40
2017,02,04,03,06,0.40
2017,02,04,03,07,0.40
2017,02,04,03,08,0.40
2017,02,04,03,09,0.40
2017,02,04,03,10,0.40
2017,02,04,03,11,0.40
2017,02,04,03,12,0.40
2017,02,04,03,13,0.30
2017,02,04,03,14,0.30
2017,02,04,03,15,0.40
2017,02,04,03,16,0.40
2017,02,04,03,17,0.40
2017,02,04,03,18,0.40
2017,02,04,03,19,0.40
2017,02,04,03,20,0.40
2017,02,04,03,21,0.40
2017,02,04,03,22,0.40
2017,02,04,03,23,0.40
2017,02,04,03,24,0.40
2017,02,04,03,25,0.40
2017,02,04,03,26,0.40
2017,02,04,03,27,0.40
2017,02,04,03,28,0.40
2017,02,04,03,29,0.40
2017,02,04,03,30,0.40
2017,02,04,03,31,0.40
2017,02,04,03,32,0.40
2017,02,04,03,33,0.40
2017,02,04,03,34,0.40
2017,02,04,03,35,0.40
2017,02,04,03,36,0.40
2017,02,04,03,37,0.40
2017,02,04,03,38,0.40
2017,02,04,03,39,0.40
2017,02,04,03,40,0.40
2017,02,04,03,41,0.40
2017,02,04,03,42,0.40
2017,02,04,03,43,0.40
2017,02,04,03,44,0.40
2017,02,04,03,45,0.40
2017,02,04,03,46,0.30
2017,02,04,03,47,0.40
2017,02,04,03,48,0.40
2017,02,04,03,49,0.40
2017,02,04,03,50,0.40
2017,02,04,03,51,0.30
2017,02,04,03,52,0.30
2017,02,04,03,53,0.40
2017,02,04,03,54,0.40
2017,02,04,03,55,0.40
2017,02,04,03,56,0.40
2017,02,04,03,57,0.40
2017,02,04,03,58,0.40
2017,02,04,03,59,0.40
2017,02,04,04,00,0.40
2017,02,04,04,01,0.40
2017,02,04,04,02,0.40
2017,02,04,04,03,0.40
2017,02,04,04,04,0.40
2017,02,04,04,05,0.40
2017,02,04,04,06,0.50
2017,02,04,04,07,0.50
2017,02,04,04,08,0.50
2017,02,04,04,09,0.50
2017,02,04,04,10,0.50
2017,02,04,04,11,0.50
2017,02,04,04,12,0.50
2017,02,04,04,13,0.50
2017,02,04,04,14,0.50
2017,02,04,04,15,0.50
2017,02,04,04,16,0.50
2017,02,04,04,17,0.50
2017,02,04,04,18,0.50
2017,02,04,04,19,0.50
2017,02,04,04,20,0.40
2017,02,04,04,21,0.50
2017,02,04,04,22,0.40
2017,02,04,04,23,0.40
2017,02,04,04,24,0.40
2017,02,04,04,25,0.40
2017,02,04,04,26,0.40
2017,02,04,04,27,0.40
2017,02,04,04,28,0.40
2017,02,04,04,29,0.40
2017,02,04,04,30,0.40
2017,02,04,04,31,0.40
2017,02,04,04,32,0.40
2017,02,04,04,33,0.40
2017,02,04,04,34,0.40
2017,02,04,04,35,0.40
2017,02,04,04,36,0.40
2017,02,04,04,37,0.40
2017,02,04,04,38,0.40
2017,02,04,04,39,0.40
2017,02,04,04,40,0.40
2017,02,04,04,41,0.40
2017,02,04,04,42,0.40
2017,02,04,04,43,0.40
2017,02,04,04,44,0.40
2017,02,04,04,45,0.40
2017,02,04,04,46,0.40
2017,02,04,04,47,0.40
2017,02,04,04,48,0.40
2017,02,04,04,49,0.40
2017,02,04,04,50,0.40
2017,02,04,04,51,0.40
2017,02,04,04,52,0.40
2017,02,04,04,53,0.40
2017,02,04,04,54,0.40
2017,02,04,04,55,0.40
2017,02,04,04,56,0.40
2017,02,04,04,57,0.40
2017,02,04,04,58,0.40
2017,02,04,04,59,0.40
2017,02,04,05,00,0.40
2017,02,04,05,01,0.40
2017,02,04,05,02,0.40
2017,02,04,05,03,0.40
2017,02,04,05,04,0.40
2017,02,04,05,05,0.40
2017,02,04,05,06,0.40
2017,02,04,05,07,0.40
2017,02,04,05,08,0.50
2017,02,04,05,09,0.40
2017,02,04,05,10,0.50
2017,02,04,05,11,0.50
2017,02,04,05,12,0.50
2017,02,04,05,13,0.50
2017,02,04,05,14,0.50
2017,02,04,05,15,0.50
2017,02,04,05,16,0.40
2017,02,04,05,17,0.40
2017,02,04,05,18,0.40
2017,02,04,05,19,0.40
2017,02,04,05,20,0.40
2017,02,04,05,21,0.50
2017,02,04,05,22,0.50
2017,02,04,05,23,0.40
2017,02,04,05,24,0.50
2017,02,04,05,25,0.50
2017,02,04,05,26,0.50
2017,02,04,05,27,0.40
2017,02,04,05,28,0.40
2017,02,04,05,29,0.40
2017,02,04,05,30,0.40
2017,02,04,05,31,0.40
2017,02,04,05,32,0.40
2017,02,04,05,33,0.40
2017,02,04,05,34,0.40
2017,02,04,05,35,0.40
2017,02,04,05,36,0.40
2017,02,04,05,37,0.40
2017,02,04,05,38,0.40
2017,02,04,05,39,0.40
2017,02,04,05,40,0.40
2017,02,04,05,41,0.40
2017,02,04,05,42,0.40
2017,02,04,05,43,0.40
2017,02,04,05,44,0.40
2017,02,04,05,45,0.40
2017,02,04,05,46,0.40
2017,02,04,05,47,0.40
2017,02,04,05,48,0.40
2017,02,04,05,49,0.40
2017,02,04,05,50,0.40
2017,02,04,05,51,0.40
2017,02,04,05,52,0.40
2017,02,04,05,53,0.40
2017,02,04,05,54,0.40
2017,02,04,05,55,0.40
2017,02,04,05,56,0.40
2017,02,04,05,57,0.40
2017,02,04,05,58,0.40
2017,02,04,05,59,0.40
2017,02,04,06,00,0.40
2017,02,04,06,01,0.40
2017,02,04,06,02,0.40
2017,02,04,06,03,0.40
2017,02,04,06,04,0.40
2017,02,04,06,05,0.40
2017,02,04,06,06,0.40
2017,02,04,06,07,0.40
2017,02,04,06,08,0.40
2017,02,04,06,09,0.40
2017,02,04,06,10,0.50
2017,02,04,06,11,0.50
2017,02,04,06,12,0.50
2017,02,04,06,13,0.50
2017,02,04,06,14,0.50
2017,02,04,06,15,0.50
2017,02,04,06,16,0.50
2017,02,04,06,17,0.50
2017,02,04,06,18,0.50
2017,02,04,06,19,0.50
2017,02,04,06,20,0.50
2017,02,04,06,21,0.50
2017,02,04,06,22,0.50
2017,02,04,06,23,0.50
2017,02,04,06,24,0.50
2017,02,04,06,25,0.50
2017,02,04,06,26,0.60
2017,02,04,06,27,0.60
2017,02,04,06,28,0.60
2017,02,04,06,29,0.60
2017,02,04,06,30,0.50
2017,02,04,06,31,0.60
2017,02,04,06,32,0.60
2017,02,04,06,33,0.60
2017,02,04,06,34,0.60
2017,02,04,06,35,0.60
2017,02,04,06,36,0.50
2017,02,04,06,37,0.60
2017,02,04,06,38,0.60
2017,02,04,06,39,0.60
2017,02,04,06,40,0.60
2017,02,04,06,41,0.50
2017,02,04,06,42,0.50
2017,02,04,06,43,0.60
2017,02,04,06,44,0.50
2017,02,04,06,45,0.50
2017,02,04,06,46,0.50
2017,02,04,06,47,0.60
2017,02,04,06,48,0.60
2017,02,04,06,49,0.60
2017,02,04,06,50,0.60
2017,02,04,06,51,0.60
2017,02,04,06,52,0.60
2017,02,04,06,53,0.60
2017,02,04,06,54,0.60
2017,02,04,06,55,0.60
2017,02,04,06,56,0.60
2017,02,04,06,57,0.60
2017,02,04,06,58,0.60
2017,02,04,06,59,0.60
2017,02,04,07,00,0.50
2017,02,04,07,01,0.60
2017,02,04,07,02,0.50
2017,02,04,07,03,0.50
2017,02,04,07,04,0.50
2017,02,04,07,05,0.50
2017,02,04,07,06,0.50
2017,02,04,07,07,0.50
2017,02,04,07,08,0.50
2017,02,04,07,09,0.50
2017,02,04,07,10,0.50
2017,02,04,07,11,0.50
2017,02,04,07,12,0.50
2017,02,04,07,13,0.50
2017,02,04,07,14,0.50
2017,02,04,07,15,0.50
2017,02,04,07,16,0.50
2017,02,04,07,17,0.50
2017,02,04,07,18,0.50
2017,02,04,07,19,0.50
2017,02,04,07,20,0.50
2017,02,04,07,21,0.50
2017,02,04,07,22,0.50
2017,02,04,07,23,0.50
2017,02,04,07,24,0.50
2017,02,04,07,25,0.50
2017,02,04,07,26,0.50
2017,02,04,07,27,0.50
2017,02,04,07,28,0.50
2017,02,04,07,29,0.50
2017,02,04,07,30,0.50
2017,02,04,07,31,0.50
2017,02,04,07,32,0.50
2017,02,04,07,33,0.50
2017,02,04,07,34,0.50
2017,02,04,07,35,0.50
2017,02,04,07,36,0.50
2017,02,04,07,37,0.50
2017,02,04,07,38,0.60
2017,02,04,07,39,0.60
2017,02,04,07,40,0.60
2017,02,04,07,41,0.60
2017,02,04,07,42,0.60
2017,02,04,07,43,0.60
2017,02,04,07,44,0.60
2017,02,04,07,45,0.60
2017,02,04,07,46,0.60
2017,02,04,07,47,0.60
2017,02,04,07,48,0.60
2017,02,04,07,49,0.60
2017,02,04,07,50,0.60
2017,02,04,07,51,0.60
2017,02,04,07,52,0.60
2017,02,04,07,53,0.60
2017,02,04,07,54,0.60
2017,02,04,07,55,0.60
2017,02,04,07,56,0.60
2017,02,04,07,57,0.60
2017,02,04,07,58,0.60
2017,02,04,07,59,0.60
2017,02,04,08,00,0.60
2017,02,04,08,01,0.60
2017,02,04,08,02,0.60
2017,02,04,08,03,0.60
2017,02,04,08,04,0.60
2017,02,04,08,05,0.60
2017,02,04,08,06,0.60
2017,02,04,08,07,0.60
2017,02,04,08,08,0.60
2017,02,04,08,09,0.60
2017,02,04,08,10,0.60
2017,02,04,08,11,0.60
2017,02,04,08,12,0.60
2017,02,04,08,13,0.60
2017,02,04,08,14,0.60
2017,02,04,08,15,0.60
2017,02,04,08,16,0.60
2017,02,04,08,17,0.60
2017,02,04,08,18,0.70
2017,02,04,08,19,0.70
2017,02,04,08,20,0.70
2017,02,04,08,21,0.70
2017,02,04,08,22,0.70
2017,02,04,08,23,0.70
2017,02,04,08,24,0.70
2017,02,04,08,25,0.70
2017,02,04,08,26,0.70
2017,02,04,08,27,0.70
2017,02,04,08,28,0.70
2017,02,04,08,29,0.70
2017,02,04,08,30,0.70
2017,02,04,08,31,0.70
2017,02,04,08,32,0.70
2017,02,04,08,33,0.70
2017,02,04,08,34,0.70
2017,02,04,08,35,0.70
2017,02,04,08,36,0.70
2017,02,04,08,37,0.70
2017,02,04,08,38,0.70
2017,02,04,08,39,0.70
2017,02,04,08,40,0.70
2017,02,04,08,41,0.70
2017,02,04,08,42,0.70
2017,02,04,08,43,0.70
2017,02,04,08,44,0.70
2017,02,04,08,45,0.70
2017,02,04,08,46,0.70
2017,02,04,08,47,0.70
2017,02,04,08,48,0.70
2017,02,04,08,49,0.70
2017,02,04,08,50,0.70
2017,02,04,08,51,0.70
2017,02,04,08,52,0.80
2017,02,04,08,53,0.70
2017,02,04,08,54,0.80
2017,02,04,08,55,0.80
2017,02,04,08,56,0.80
2017,02,04,08,57,0.80
2017,02,04,08,58,0.80
2017,02,04,08,59,0.80
2017,02,04,09,00,0.80
2017,02,04,09,01,0.80
2017,02,04,09,02,0.80
2017,02,04,09,03,0.80
2017,02,04,09,04,0.80
2017,02,04,09,05,0.80
2017,02,04,09,06,0.80
2017,02,04,09,07,0.80
2017,02,04,09,08,0.80
2017,02,04,09,09,0.80
2017,02,04,09,10,0.80
2017,02,04,09,11,0.80
2017,02,04,09,12,0.80
2017,02,04,09,13,0.80
2017,02,04,09,14,0.80
2017,02,04,09,15,0.80
2017,02,04,09,16,0.80
2017,02,04,09,17,0.80
2017,02,04,09,18,0.80
2017,02,04,09,19,0.80
2017,02,04,09,20,0.80
2017,02,04,09,21,0.80
2017,02,04,09,22,0.90
2017,02,04,09,23,0.90
2017,02,04,09,24,0.90
2017,02,04,09,25,0.90
2017,02,04,09,26,0.90
2017,02,04,09,27,0.90
2017,02,04,09,28,0.90
2017,02,04,09,29,0.90
2017,02,04,09,30,0.90
2017,02,04,09,31,0.90
2017,02,04,09,32,0.90
2017,02,04,09,33,0.90
2017,02,04,09,34,0.90
2017,02,04,09,35,0.90
2017,02,04,09,36,0.90
2017,02,04,09,37,0.90
2017,02,04,09,38,0.90
2017,02,04,09,39,0.90
2017,02,04,09,40,0.90
2017,02,04,09,41,0.90
2017,02,04,09,42,0.90
2017,02,04,09,43,0.90
2017,02,04,09,44,0.90
2017,02,04,09,45,0.90
2017,02,04,09,46,0.90
2017,02,04,09,47,0.90
2017,02,04,09,48,1.00
2017,02,04,09,49,1.00
2017,02,04,09,50,1.00
2017,02,04,09,51,1.00
2017,02,04,09,52,1.00
2017,02,04,09,53,1.00
2017,02,04,09,54,1.00
2017,02,04,09,55,1.10
2017,02,04,09,56,1.10
2017,02,04,09,57,1.10
2017,02,04,09,58,1.10
2017,02,04,09,59,1.10
2017,02,04,10,00,1.10
2017,02,04,10,01,1.10
2017,02,04,10,02,1.10
2017,02,04,10,03,1.10
2017,02,04,10,04,1.10
2017,02,04,10,05,1.10
2017,02,04,10,06,1.10
2017,02,04,10,07,1.10
2017,02,04,10,08,1.10
2017,02,04,10,09,1.20
2017,02,04,10,10,1.20
2017,02,04,10,11,1.20
2017,02,04,10,12,1.20
2017,02,04,10,13,1.20
2017,02,04,10,14,1.20
2017,02,04,10,15,1.20
2017,02,04,10,16,1.20
2017,02,04,10,17,1.20
2017,02,04,10,18,1.20
2017,02,04,10,19,1.20
2017,02,04,10,20,1.20
2017,02,04,10,21,1.20
2017,02,04,10,22,1.20
2017,02,04,10,23,1.20
2017,02,04,10,24,1.20
2017,02,04,10,25,1.20
2017,02,04,10,26,1.20
2017,02,04,10,27,1.20
2017,02,04,10,28,1.20
2017,02,04,10,29,1.20
2017,02,04,10,30,1.20
2017,02,04,10,31,1.20
2017,02,04,10,32,1.30
2017,02,04,10,33,1.30
2017,02,04,10,34,1.30
2017,02,04,10,35,1.30
2017,02,04,10,36,1.30
2017,02,04,10,37,1.30
2017,02,04,10,38,1.30
2017,02,04,10,39,1.30
2017,02,04,10,40,1.30
2017,02,04,10,41,1.30
2017,02,04,10,42,1.30
2017,02,04,10,43,1.30
2017,02,04,10,44,1.30
2017,02,04,10,45,1.30
2017,02,04,10,46,1.30
2017,02,04,10,47,1.40
2017,02,04,10,48,1.30
2017,02,04,10,49,1.40
2017,02,04,10,50,1.40
2017,02,04,10,51,1.40
2017,02,04,10,52,1.40
2017,02,04,10,53,1.40
2017,02,04,10,54,1.40
2017,02,04,10,55,1.40
2017,02,04,10,56,1.40
2017,02,04,10,57,1.40
2017,02,04,10,58,1.40
2017,02,04,10,59,1.40
2017,02,04,11,00,1.40
2017,02,04,11,01,1.40
2017,02,04,11,02,1.40
2017,02,04,11,03,1.40
2017,02,04,11,04,1.40
2017,02,04,11,05,1.40
2017,02,04,11,06,1.40
2017,02,04,11,07,1.40
2017,02,04,11,08,1.40
2017,02,04,11,09,1.40
2017,02,04,11,10,1.40
2017,02,04,11,11,1.40
2017,02,04,11,12,1.40
2017,02,04,11,13,1.40
2017,02,04,11,14,1.40
2017,02,04,11,15,1.40
2017,02,04,11,16,1.40
2017,02,04,11,17,1.40
2017,02,04,11,18,1.40
2017,02,04,11,19,1.40
2017,02,04,11,20,1.40
2017,02,04,11,21,1.40
2017,02,04,11,22,1.40
2017,02,04,11,23,1.40
2017,02,04,11,24,1.40
2017,02,04,11,25,1.40
2017,02,04,11,26,1.40
2017,02,04,11,27,1.40
2017,02,04,11,28,1.40
2017,02,04,11,29,1.40
2017,02,04,11,30,1.40
2017,02,04,11,31,1.40
2017,02,04,11,32,1.40
2017,02,04,11,33,1.40
2017,02,04,11,34,1.40
2017,02,04,11,35,1.40
2017,02,04,11,36,1.40
2017,02,04,11,37,1.40
2017,02,04,11,38,1.40
2017,02,04,11,39,1.40
2017,02,04,11,40,1.40
2017,02,04,11,41,1.40
2017,02,04,11,42,1.40
2017,02,04,11,43,1.40
2017,02,04,11,44,1.40
2017,02,04,11,45,1.40
2017,02,04,11,46,1.40
2017,02,04,11,47,1.40
2017,02,04,11,48,1.40
2017,02,04,11,49,1.40
2017,02,04,11,50,1.40
2017,02,04,11,51,1.40
2017,02,04,11,52,1.40
2017,02,04,11,53,1.40
2017,02,04,11,54,1.40
2017,02,04,11,55,1.40
2017,02,04,11,56,1.40
2017,02,04,11,57,1.40
2017,02,04,11,58,1.40
2017,02,04,11,59,1.40
2017,02,04,12,00,1.40
2017,02,04,12,01,1.40
2017,02,04,12,02,1.40
2017,02,04,12,03,1.40
2017,02,04,12,04,1.40
2017,02,04,12,05,1.40
2017,02,04,12,06,1.40
2017,02,04,12,07,1.40
2017,02,04,12,08,1.40
2017,02,04,12,09,1.40
2017,02,04,12,10,1.40
2017,02,04,12,11,1.40
2017,02,04,12,12,1.40
2017,02,04,12,13,1.40
2017,02,04,12,14,1.40
2017,02,04,12,15,1.50
2017,02,04,12,16,1.50
2017,02,04,12,17,1.50
2017,02,04,12,18,1.50
2017,02,04,12,19,1.50
2017,02,04,12,20,1.50
2017,02,04,12,21,1.50
2017,02,04,12,22,1.50
2017,02,04,12,23,1.50
2017,02,04,12,24,1.50
2017,02,04,12,25,1.50
2017,02,04,12,26,1.50
2017,02,04,12,27,1.60
2017,02,04,12,28,1.60
2017,02,04,12,29,1.60
2017,02,04,12,30,1.60
2017,02,04,12,31,1.60
2017,02,04,12,32,1.60
2017,02,04,12,33,1.60
2017,02,04,12,34,1.60
2017,02,04,12,35,1.60
2017,02,04,12,36,1.50
2017,02,04,12,37,1.50
2017,02,04,12,38,1.50
2017,02,04,12,39,1.50
2017,02,04,12,40,1.50
2017,02,04,12,41,1.50
2017,02,04,12,42,1.50
2017,02,04,12,43,1.50
2017,02,04,12,44,1.50
2017,02,04,12,45,1.50
2017,02,04,12,46,1.50
2017,02,04,12,47,1.50
2017,02,04,12,48,1.50
2017,02,04,12,49,1.50
2017,02,04,12,50,1.50
2017,02,04,12,51,1.50
2017,02,04,12,52,1.50
2017,02,04,12,53,1.60
2017,02,04,12,54,1.60
2017,02,04,12,55,1.60
2017,02,04,12,56,1.60
2017,02,04,12,57,1.60
2017,02,04,12,58,1.60
2017,02,04,12,59,1.60
2017,02,04,13,00,1.60
2017,02,04,13,01,1.50
2017,02,04,13,02,1.60
2017,02,04,13,03,1.50
2017,02,04,13,04,1.50
2017,02,04,13,05,1.50
2017,02,04,13,06,1.50
2017,02,04,13,07,1.50
2017,02,04,13,08,1.50
2017,02,04,13,09,1.50
2017,02,04,13,10,1.50
2017,02,04,13,11,1.50
2017,02,04,13,12,1.50
2017,02,04,13,13,1.50
2017,02,04,13,14,1.50
2017,02,04,13,15,1.50
2017,02,04,13,16,1.40
2017,02,04,13,17,1.40
2017,02,04,13,18,1.40
2017,02,04,13,19,1.40
2017,02,04,13,20,1.40
2017,02,04,13,21,1.40
2017,02,04,13,22,1.40
2017,02,04,13,23,1.40
2017,02,04,13,24,1.40
2017,02,04,13,25,1.40
2017,02,04,13,26,1.40
2017,02,04,13,27,1.40
2017,02,04,13,28,1.40
2017,02,04,13,29,1.40
2017,02,04,13,30,1.40
2017,02,04,13,31,1.40
2017,02,04,13,32,1.40
2017,02,04,13,33,1.40
2017,02,04,13,34,1.40
2017,02,04,13,35,1.40
2017,02,04,13,36,1.40
2017,02,04,13,37,1.40
2017,02,04,13,38,1.40
2017,02,04,13,39,1.40
2017,02,04,13,55,1.30
2017,02,04,13,56,1.30
2017,02,04,13,57,1.40
2017,02,04,13,58,1.30
2017,02,04,13,59,1.30
2017,02,04,14,00,1.30
2017,02,04,14,01,1.30
2017,02,04,14,02,1.30
2017,02,04,14,03,1.30
2017,02,04,14,04,1.30
2017,02,04,14,05,1.30
2017,02,04,14,06,1.30
2017,02,04,14,07,1.30
2017,02,04,14,08,1.30
2017,02,04,14,09,1.30
2017,02,04,14,10,1.30
2017,02,04,14,11,1.30
2017,02,04,14,12,1.30
2017,02,04,14,13,1.30
2017,02,04,14,14,1.30
2017,02,04,14,15,1.30
2017,02,04,14,16,1.30
2017,02,04,14,17,1.30
2017,02,04,14,18,1.30
2017,02,04,14,19,1.30
2017,02,04,14,20,1.30
2017,02,04,14,21,1.30
2017,02,04,14,22,1.30
2017,02,04,14,23,1.30
2017,02,04,14,24,1.30
2017,02,04,14,25,1.30
2017,02,04,14,26,1.30
2017,02,04,14,27,1.30
2017,02,04,14,28,1.30
2017,02,04,14,29,1.20
2017,02,04,14,30,1.20
2017,02,04,14,31,1.20
2017,02,04,14,32,1.20
2017,02,04,14,33,1.20
2017,02,04,14,34,1.20
2017,02,04,14,35,1.20
2017,02,04,14,36,1.20
2017,02,04,14,37,1.20
2017,02,04,14,38,1.20
2017,02,04,14,39,1.20
2017,02,04,14,40,1.20
2017,02,04,14,41,1.20
2017,02,04,14,42,1.20
2017,02,04,14,43,1.20
2017,02,04,14,44,1.20
2017,02,04,14,45,1.20
2017,02,04,14,46,1.20
2017,02,04,14,47,1.20
2017,02,04,14,48,1.10
2017,02,04,14,49,1.10
2017,02,04,14,50,1.10
2017,02,04,14,51,1.10
2017,02,04,14,52,1.10
2017,02,04,14,53,1.10
2017,02,04,14,54,1.10
2017,02,04,14,55,1.10
2017,02,04,14,56,1.10
2017,02,04,14,57,1.10
2017,02,04,14,58,1.10
2017,02,04,14,59,1.10
2017,02,04,15,00,1.10
2017,02,04,15,01,1.10
2017,02,04,15,02,1.10
2017,02,04,15,03,1.10
2017,02,04,15,04,1.10
2017,02,04,15,05,1.10
2017,02,04,15,06,1.10
2017,02,04,15,07,1.10
2017,02,04,15,08,1.00
2017,02,04,15,09,1.00
2017,02,04,15,10,1.00
2017,02,04,15,11,1.00
2017,02,04,15,12,1.00
2017,02,04,15,13,1.00
2017,02,04,15,14,0.90
2017,02,04,15,15,0.90
2017,02,04,15,16,0.90
2017,02,04,15,17,0.90
2017,02,04,15,18,0.90
2017,02,04,15,19,0.90
2017,02,04,15,20,0.90
2017,02,04,15,21,0.90
2017,02,04,15,22,0.90
2017,02,04,15,23,0.90
2017,02,04,15,24,0.90
2017,02,04,15,25,0.90
2017,02,04,15,26,0.90
2017,02,04,15,27,0.90
2017,02,04,15,28,0.80
2017,02,04,15,29,0.80
2017,02,04,15,30,0.80
2017,02,04,15,31,0.80
2017,02,04,15,32,0.80
2017,02,04,15,33,0.80
2017,02,04,15,34,0.80
2017,02,04,15,35,0.80
2017,02,04,15,36,0.80
2017,02,04,15,37,0.80
2017,02,04,15,38,0.80
2017,02,04,15,39,0.80
2017,02,04,15,40,0.80
2017,02,04,15,41,0.80
2017,02,04,15,42,0.80
2017,02,04,15,43,0.80
2017,02,04,15,44,0.80
2017,02,04,15,45,0.80
2017,02,04,15,46,0.80
2017,02,04,15,47,0.80
2017,02,04,15,48,0.80
2017,02,04,15,49,0.80
2017,02,04,15,50,0.80
2017,02,04,15,51,0.80
2017,02,04,15,52,0.80
2017,02,04,15,53,0.80
2017,02,04,15,54,0.80
2017,02,04,15,55,0.80
2017,02,04,15,56,0.80
2017,02,04,15,57,0.80
2017,02,04,15,58,0.80
2017,02,04,15,59,0.80
2017,02,04,16,00,0.80
2017,02,04,16,01,0.80
2017,02,04,16,02,0.80
2017,02,04,16,03,0.80
2017,02,04,16,04,0.80
2017,02,04,16,05,0.80
2017,02,04,16,06,0.80
2017,02,04,16,07,0.80
2017,02,04,16,08,0.80
2017,02,04,16,09,0.80
2017,02,04,16,10,0.80
2017,02,04,16,11,0.80
2017,02,04,16,12,0.80
2017,02,04,16,13,0.80
2017,02,04,16,14,0.80
2017,02,04,16,15,0.80
2017,02,04,16,16,0.80
2017,02,04,16,17,0.80
2017,02,04,16,18,0.80
2017,02,04,16,19,0.80
2017,02,04,16,20,0.80
2017,02,04,16,21,0.80
2017,02,04,16,22,0.80
2017,02,04,16,23,0.80
2017,02,04,16,24,0.80
2017,02,04,16,25,0.80
2017,02,04,16,26,0.80
2017,02,04,16,27,0.80
2017,02,04,16,28,0.80
2017,02,04,16,29,0.80
2017,02,04,16,30,0.80
2017,02,04,16,31,0.80
2017,02,04,16,32,0.80
2017,02,04,16,33,0.80
2017,02,04,16,34,0.80
2017,02,04,16,35,0.80
2017,02,04,16,36,0.80
2017,02,04,16,37,0.80
2017,02,04,16,38,0.80
2017,02,04,16,39,0.80
2017,02,04,16,40,0.80
2017,02,04,16,41,0.80
2017,02,04,16,42,0.80
2017,02,04,16,43,0.80
2017,02,04,16,44,0.80
2017,02,04,16,45,0.80
2017,02,04,16,46,0.80
2017,02,04,16,47,0.90
2017,02,04,16,48,0.90
2017,02,04,16,49,0.90
2017,02,04,16,50,0.90
2017,02,04,16,51,0.90
2017,02,04,16,52,0.90
2017,02,04,16,53,0.90
2017,02,04,16,54,0.90
2017,02,04,16,55,0.90
2017,02,04,16,56,0.90
2017,02,04,16,57,0.90
2017,02,04,16,58,0.90
2017,02,04,16,59,0.90
2017,02,04,17,00,0.90
2017,02,04,17,01,0.90
2017,02,04,17,02,0.90
2017,02,04,17,03,0.90
2017,02,04,17,04,0.90
2017,02,04,17,05,0.90
2017,02,04,17,06,0.90
2017,02,04,17,07,0.90
2017,02,04,17,08,0.90
2017,02,04,17,09,0.90
2017,02,04,17,10,0.90
2017,02,04,17,11,0.90
2017,02,04,17,12,0.90
2017,02,04,17,13,0.90
2017,02,04,17,14,0.90
2017,02,04,17,15,0.90
2017,02,04,17,16,1.00
2017,02,04,17,17,0.90
2017,02,04,17,18,1.00
2017,02,04,17,19,1.00
2017,02,04,17,20,1.00
2017,02,04,17,21,1.00
2017,02,04,17,22,1.00
2017,02,04,17,23,1.00
2017,02,04,17,24,1.00
2017,02,04,17,25,1.00
2017,02,04,17,26,1.00
2017,02,04,17,27,1.00
2017,02,04,17,28,1.00
2017,02,04,17,29,1.00
2017,02,04,17,30,1.00
2017,02,04,17,31,1.00
2017,02,04,17,32,1.00
2017,02,04,17,33,1.10
2017,02,04,17,34,1.10
2017,02,04,17,35,1.10
2017,02,04,17,36,1.10
2017,02,04,17,37,1.10
2017,02,04,17,38,1.10
2017,02,04,17,39,1.10
2017,02,04,17,40,1.10
2017,02,04,17,41,1.10
2017,02,04,17,42,1.10
2017,02,04,17,43,1.10
2017,02,04,17,44,1.10
2017,02,04,17,45,1.10
2017,02,04,17,46,1.10
2017,02,04,17,47,1.10
2017,02,04,17,48,1.10
2017,02,04,17,49,1.10
2017,02,04,17,50,1.10
2017,02,04,17,51,1.10
2017,02,04,17,52,1.10
2017,02,04,17,53,1.10
2017,02,04,17,54,1.10
2017,02,04,17,55,1.10
2017,02,04,17,56,1.10
2017,02,04,17,57,1.10
2017,02,04,17,58,1.10
2017,02,04,17,59,1.10
2017,02,04,18,00,1.10
2017,02,04,18,01,1.10
2017,02,04,18,02,1.10
2017,02,04,18,03,1.10
2017,02,04,18,04,1.10
2017,02,04,18,05,1.10
2017,02,04,18,06,1.10
2017,02,04,18,07,1.10
2017,02,04,18,08,1.10
2017,02,04,18,09,1.10
2017,02,04,18,10,1.10
2017,02,04,18,11,1.10
2017,02,04,18,12,1.10
2017,02,04,18,13,1.10
2017,02,04,18,14,1.10
2017,02,04,18,15,1.10
2017,02,04,18,16,1.10
2017,02,04,18,17,1.10
2017,02,04,18,18,1.10
2017,02,04,18,19,1.10
2017,02,04,18,20,1.10
2017,02,04,18,21,1.00
2017,02,04,18,22,1.00
2017,02,04,18,23,1.00
2017,02,04,18,24,1.00
2017,02,04,18,25,1.00
2017,02,04,18,26,1.00
2017,02,04,18,27,1.00
2017,02,04,18,28,0.90
2017,02,04,18,29,0.90
2017,02,04,18,30,0.90
2017,02,04,18,31,0.90
2017,02,04,18,32,0.90
2017,02,04,18,33,0.90
2017,02,04,18,34,0.90
2017,02,04,18,35,0.90
2017,02,04,18,36,0.90
2017,02,04,18,37,0.90
2017,02,04,18,38,0.90
2017,02,04,18,39,0.80
2017,02,04,18,40,0.80
2017,02,04,18,41,0.80
2017,02,04,18,42,0.80
2017,02,04,18,43,0.80
2017,02,04,18,44,0.80
2017,02,04,18,45,0.80
2017,02,04,18,46,0.80
2017,02,04,18,47,0.80
2017,02,04,18,48,0.80
2017,02,04,18,49,0.80
2017,02,04,18,50,0.80
2017,02,04,18,51,0.80
2017,02,04,18,52,0.80
2017,02,04,18,53,0.80
2017,02,04,18,54,0.80
2017,02,04,18,55,0.80
2017,02,04,18,56,0.80
2017,02,04,18,57,0.80
2017,02,04,18,58,0.80
2017,02,04,18,59,0.80
2017,02,04,19,00,0.80
2017,02,04,19,01,0.80
2017,02,04,19,02,0.80
2017,02,04,19,03,0.80
2017,02,04,19,04,0.80
2017,02,04,19,05,0.80
2017,02,04,19,06,0.80
2017,02,04,19,07,0.80
2017,02,04,19,08,0.80
2017,02,04,19,09,0.80
2017,02,04,19,10,0.80
2017,02,04,19,11,0.80
2017,02,04,19,12,0.80
2017,02,04,19,13,0.80
2017,02,04,19,14,0.80
2017,02,04,19,15,0.80
2017,02,04,19,16,0.80
2017,02,04,19,17,0.80
2017,02,04,19,18,0.80
2017,02,04,19,19,0.80
2017,02,04,19,20,0.80
2017,02,04,19,21,0.90
2017,02,04,19,22,0.90
2017,02,04,19,23,0.90
2017,02,04,19,24,0.90
2017,02,04,19,25,0.90
2017,02,04,19,26,0.90
2017,02,04,19,27,0.90
2017,02,04,19,28,0.90
2017,02,04,19,29,0.90
2017,02,04,19,30,0.90
2017,02,04,19,31,0.90
2017,02,04,19,32,0.90
2017,02,04,19,33,0.90
2017,02,04,19,34,0.90
2017,02,04,19,35,0.90
2017,02,04,19,36,0.90
2017,02,04,19,37,0.90
2017,02,04,19,38,0.90
2017,02,04,19,39,0.90
2017,02,04,19,40,0.90
2017,02,04,19,41,0.90
2017,02,04,19,42,0.90
2017,02,04,19,43,0.90
2017,02,04,19,44,0.90
2017,02,04,19,45,0.90
2017,02,04,19,46,0.90
2017,02,04,19,47,0.90
2017,02,04,19,48,0.90
2017,02,04,19,49,0.90
2017,02,04,19,50,0.90
2017,02,04,19,51,0.90
2017,02,04,19,52,0.90
2017,02,04,19,53,0.90
2017,02,04,19,54,0.80
2017,02,04,19,55,0.80
2017,02,04,19,56,0.80
2017,02,04,19,57,0.80
2017,02,04,19,58,0.80
2017,02,04,19,59,0.80
2017,02,04,20,00,0.80
2017,02,04,20,01,0.80
2017,02,04,20,02,0.80
2017,02,04,20,03,0.80
2017,02,04,20,04,0.80
2017,02,04,20,05,0.80
2017,02,04,20,06,0.90
2017,02,04,20,07,0.90
2017,02,04,20,08,0.90
2017,02,04,20,09,0.90
2017,02,04,20,10,0.90
2017,02,04,20,11,0.90
2017,02,04,20,12,0.90
2017,02,04,20,13,0.90
2017,02,04,20,14,0.90
2017,02,04,20,15,0.90
2017,02,04,20,16,1.00
2017,02,04,20,17,1.00
2017,02,04,20,18,1.00
2017,02,04,20,19,1.00
2017,02,04,20,20,1.00
2017,02,04,20,21,1.00
2017,02,04,20,22,1.00
2017,02,04,20,23,1.00
2017,02,04,20,24,1.10
2017,02,04,20,25,1.00
2017,02,04,20,26,1.00
2017,02,04,20,27,1.10
2017,02,04,20,28,1.10
2017,02,04,20,29,1.10
2017,02,04,20,30,1.10
2017,02,04,20,31,1.10
2017,02,04,20,32,1.10
2017,02,04,20,33,1.10
2017,02,04,20,34,1.10
2017,02,04,20,35,1.10
2017,02,04,20,36,1.00
2017,02,04,20,37,1.00
2017,02,04,20,38,1.00